Overview Statistics Trail Chart Weather Telemetry Raw packets
 

This is the latest recevied weather packets stored in our database for station/object M0HPP-13. If no packets are shown the sender has not sent any weather packets the latest 10 day(s).

<< 18 19 20 21 22 23 24 >>
Time Temp. Humidity Pressure Rain* Wind** Luminosity Snow
1788347886 13.33° C 71% 1012.8 hPa 0 mm - 308 W/m² -
1788347286 12.22° C 73% 1012.9 hPa 0 mm - 329 W/m² -
1788346686 12.22° C 74% 1012.8 hPa 0 mm - 319 W/m² -
1788346086 12.22° C 73% 1012.9 hPa 0 mm - 211 W/m² -
1788345486 12.78° C 74% 1012.8 hPa 0 mm - 253 W/m² -
1788344886 11.67° C 78% 1012.8 hPa 0 mm - 284 W/m² -
1788344286 12.78° C 75% 1012.9 hPa 0 mm - 150 W/m² -
1788343686 13.89° C 71% 1013.1 hPa 0 mm - 216 W/m² -
1788343086 14.44° C 70% 1013.1 hPa 0 mm - 185 W/m² -
1788342486 14.44° C 70% 1013.1 hPa 0 mm - 205 W/m² -
1788341886 13.33° C 77% 1013.3 hPa 0 mm - 225 W/m² -
1788341286 11.67° C 81% 1013.3 hPa 0 mm - 195 W/m² -
1788340686 10.56° C 87% 1013.4 hPa 0 mm - 227 W/m² -
1788340086 10.56° C 86% 1013.3 hPa 0 mm - 125 W/m² -
1788339486 11.11° C 85% 1013.3 hPa 0 mm - 111 W/m² -
1788338886 11.11° C 85% 1013.2 hPa 0 mm - 141 W/m² -
1788338286 11.67° C 83% 1013.3 hPa 0 mm - 113 W/m² -
1788337686 11.67° C 81% 1013.2 hPa 0 mm - 90 W/m² -
1788337086 12.22° C 78% 1013.1 hPa 0 mm - 105 W/m² -
1788336486 11.67° C 82% 1013.3 hPa 0 mm - 126 W/m² -
1788335886 11.11° C 83% 1013.2 hPa 0 mm - 112 W/m² -
1788335286 12.78° C 79% 1013.3 hPa 0 mm - 95 W/m² -
1788334686 11.67° C 85% 1013.3 hPa 0 mm - 110 W/m² -
1788334086 11.11° C 89% 1013.2 hPa 0 mm - 93 W/m² -
1788333486 10.56° C 89% 1013.2 hPa 0 mm - 81 W/m² -

* Rain latest hour (hover to see other rain measurements)
** Current wind speed in m/s (hover to see current wind gust speed)